Location: *
(40.7873°S, 98.7174°E)
Time: 12:01:37
(UTC+00:00)

Envisat - Visible Passes

Search period start: 12 August 2022 00:00
Search period end: 22 August 2022 00:00
Orbit: 763 x 765 km, 98.2° (Epoch: 11 August)

Date Brightness Start Highest point End Pass type
(mag) Time Alt. Az. Time Alt. Az. Time Alt. Az.
13 Aug 5.9 11:36:15 10° SW 11:38:15 12° WSW 11:40:14 10° W visible
16 Aug 5.7 11:23:39 10° SSW 11:26:36 16° WSW 11:29:32 10° W visible
19 Aug 5.6 11:11:20 10° SSW 11:14:57 19° WSW 11:18:31 10° WNW visible
21 Aug 6.0 11:38:02 10° SW 11:39:43 12° WSW 11:41:23 10° WSW visible
